Simultaneous Nadir Overpasses (SNOs) Predictions

Prediction of SNOs between AQUA and METOP-C Satellite Orbit:

Table of predicted SNOs for the next 14.0 days since TLE Epoch: 4/10/2020
Index Date (AQUA) Time (AQUA) Lat,Lon (AQUA) SZA (AQUA ) Date (METOP-C) Time (METOP-C) Lat,Lon (METOP-C) SZA (METOP-C ) Distance(km) Time Diff (sec)
1 04/11/2020 14:16:58 73.74, -39.75 65.11 04/11/2020 14:16:24 73.71, -39.80 65.09 3.22 34
2 04/11/2020 15:06:24 -73.79, 127.79 114.86 04/11/2020 15:07:03 -73.81, 127.77 114.83 3.09 39
3 04/14/2020 09:51:13 73.74, 26.68 64.09 04/14/2020 09:50:47 73.73, 26.63 64.08 2.65 26
4 04/14/2020 10:40:40 -73.84,-165.89 115.82 04/14/2020 10:41:26 -73.83,-165.79 115.84 3.31 46
5 04/17/2020 04:35:48 -73.18, -73.32 117.50 04/17/2020 04:34:41 -73.12, -75.67 117.48 76.04 67
6 04/17/2020 05:25:27 73.76, 93.09 63.10 04/17/2020 05:25:09 73.73, 93.06 63.08 2.77 18
7 04/17/2020 06:14:53 -73.80, -99.36 116.87 04/17/2020 06:15:49 -73.79, -99.47 116.88 3.55 56
8 04/20/2020 00:10:09 -73.51, -7.57 118.13 04/20/2020 00:08:58 -73.43, -8.57 118.17 32.94 71
9 04/20/2020 00:59:42 73.78, 159.49 62.14 04/20/2020 00:59:31 73.79, 159.60 62.16 3.69 11
10 04/20/2020 01:49:08 -73.82, -32.95 117.83 04/20/2020 01:50:12 -73.81, -33.03 117.84 2.64 64
11 04/22/2020 19:44:27 -73.69, 58.49 118.90 04/22/2020 19:43:16 -73.69, 58.43 118.88 1.81 71
12 04/22/2020 20:33:56 73.75,-134.02 61.16 04/22/2020 20:33:55 73.75,-134.10 61.16 2.80 1




NCC Satellite Simultaneous Nadir Overpasses (SNOs) Prediction Service
